Weather History for TJSJ - January, 2013

Change the Weather History Date:

Sunday, January 27, 2013

  Actual Average Record
Temperature  
Mean Temperature 79 °F 78 °F  
Max Temperature 84 °F 83 °F 89 °F (1966)
Min Temperature 73 °F 72 °F 63 °F (1986)
Degree Days  
Heating Degree Days 0 0  
Month to date heating degree days 0 0  
Since 1 July heating degree days 0 0  
Cooling Degree Days 14 12  
Month to date cooling degree days 366 342  
Year to date cooling degree days 366 342  
Growing Degree Days 28 (Base 50)    
Moisture  
Dew Point 70 °F    
Average Humidity 76    
Maximum Humidity 87    
Minimum Humidity 65    
Precipitation  
Precipitation T in 0.10 in 1.01 in (1905)
Month to date precipitation 1.50 3.39  
Year to date precipitation 1.50 3.39  
Sea Level Pressure  
Sea Level Pressure 30.10 in    
Wind  
Wind Speed 7 mph (East)    
Max Wind Speed 16 mph    
Max Gust Speed 22 mph    
Visibility 10 miles    
Events      
T = Trace of Precipitation, MM = Missing Value Source: NWS Daily Summary

Daily Weather History Graph

Daily Weather History Graph

Search for Another Location

Airport or City:

Trip Planner

Search our weather history database for the weather conditions in past years. The results will help you decide how hot, cold, wet, or windy it might be!

Date:

Astronomy

Jan. 27, 2013 Rise Set
Actual Time 6:58 AM AST 6:15 PM AST
Civil Twilight 6:35 AM AST 6:38 PM AST
Nautical Twilight 6:09 AM AST 7:04 PM AST
Astronomical Twilight 5:43 AM AST 7:30 PM AST
Moon 6:51 PM AST (1/27) 7:00 AM AST (1/27)
Length of Visible Light 12h 02m
Length of Day
11h 16m
Full, 100% of the Moon is Illuminated
Jan 27
Full
Feb 3
Last Quarter
Feb 10
New
Feb 17
First Quarter
Feb 25
Full

Hourly Weather History & Observations

Time (AST) Temp. Heat Index Dew Point Humidity Pressure Visibility Wind Dir Wind Speed Gust Speed Precip Events Conditions
12:56 AM 75.9 °F - 71.1 °F 85% 30.09 in 10.0 mi ESE 3.5 mph - N/A   Scattered Clouds
1:56 AM 75.0 °F - 71.1 °F 87% 30.08 in 10.0 mi Calm Calm - N/A   Scattered Clouds
2:56 AM 73.9 °F - 70.0 °F 87% 30.06 in 10.0 mi Calm Calm - N/A   Partly Cloudy
3:56 AM 73.9 °F - 70.0 °F 87% 30.06 in 10.0 mi Calm Calm - N/A   Scattered Clouds
4:56 AM 73.0 °F - 70.0 °F 90% 30.06 in 10.0 mi East 3.5 mph - N/A   Partly Cloudy
5:56 AM 73.0 °F - 69.1 °F 87% 30.07 in 10.0 mi Calm Calm - N/A   Partly Cloudy
6:56 AM 73.9 °F - 70.0 °F 87% 30.08 in 10.0 mi Calm Calm - N/A   Scattered Clouds
7:56 AM 75.0 °F - 70.0 °F 84% 30.10 in 10.0 mi Calm Calm - N/A   Scattered Clouds
8:56 AM 79.0 °F - 71.1 °F 77% 30.12 in 10.0 mi ESE 5.8 mph - N/A   Partly Cloudy
9:56 AM 81.0 °F 84.4 °F 70.0 °F 69% 30.14 in 10.0 mi ESE 9.2 mph - N/A   Scattered Clouds
10:56 AM 80.1 °F 83.6 °F 71.1 °F 74% 30.14 in 10.0 mi ENE 15.0 mph - N/A   Scattered Clouds
11:56 AM 81.0 °F 85.2 °F 72.0 °F 74% 30.13 in 10.0 mi ENE 10.4 mph - 0.00 in   Scattered Clouds
12:56 PM 82.9 °F 88.0 °F 72.0 °F 69% 30.11 in 10.0 mi ENE 15.0 mph - N/A   Scattered Clouds
1:56 PM 82.9 °F 87.5 °F 71.1 °F 67% 30.09 in 10.0 mi East 12.7 mph 21.9 mph N/A   Partly Cloudy
2:56 PM 82.9 °F 87.0 °F 70.0 °F 65% 30.08 in 10.0 mi ENE 12.7 mph 20.7 mph N/A   Scattered Clouds
3:56 PM 82.0 °F 85.9 °F 70.0 °F 67% 30.07 in 10.0 mi East 16.1 mph 19.6 mph N/A   Partly Cloudy
4:56 PM 81.0 °F 84.4 °F 70.0 °F 69% 30.08 in 10.0 mi East 15.0 mph - N/A   Partly Cloudy
5:56 PM 80.1 °F 83.2 °F 70.0 °F 71% 30.10 in 10.0 mi ENE 11.5 mph - N/A   Scattered Clouds
6:56 PM 78.1 °F - 70.0 °F 76% 30.12 in 10.0 mi East 8.1 mph - N/A   Scattered Clouds
7:56 PM 77.0 °F - 70.0 °F 79% 30.13 in 10.0 mi East 6.9 mph - N/A   Scattered Clouds
8:56 PM 78.1 °F - 70.0 °F 76% 30.14 in 10.0 mi ENE 6.9 mph - N/A   Scattered Clouds
9:56 PM 78.1 °F - 70.0 °F 76% 30.15 in 10.0 mi ENE 9.2 mph - N/A   Scattered Clouds
10:56 PM 77.0 °F - 69.1 °F 76% 30.15 in 10.0 mi East 5.8 mph - N/A   Scattered Clouds
11:56 PM 75.9 °F - 70.0 °F 82% 30.14 in 10.0 mi East 5.8 mph - N/A   Scattered Clouds